SR - Orbit

View from above orbital plane
View from above orbital plane
View from above satellite
View from above satellite

Ground track
Ground track

The orbit data is extracted from the following two-line orbital elements,

1 00046U 60007B   13168.33602957  .00000081  00000-0  39900-4 0  3906
2 00046 066.6926 108.9821 0222826 236.9462 121.0070 14.47030347768713
Epoch (UTC): 17 June 2013 08:03:52
Eccentricity: 0.0222826
inclination: 66.6926°
perigee height: 577 km
apogee height: 894 km
right ascension of ascending node: 108.9821°
argument of perigee: 236.9462°
revolutions per day: 14.47030347
mean anomaly at epoch: 121.0070°
orbit number at epoch: 76871

The dashed part of the orbit path shows where the satellite is in the earth's shadow,  

Developed and maintained by Chris Peat, Heavens-Above GmbH. Please read the updated FAQ before sending e-mail. Imprint. DLR